Regional Weather Roundup
Issued by NWS Northern Indiana

Home | Current Version | Previous Version | Text Only | Print | Product List | Glossary Off
Versions: 1 2 3 4 5 6 7 8 9 10 11 12 13 14 15 16 17 18 19 20 21 22 23 24 25 26 27 28 29 30 31 32 33 34 35 36 37 38 39 40 41 42 43 44 45 46 47 48 49 50

000
ASUS43 KIWX 220110
RWRIWX

KIWX WEATHER ROUNDUP
NATIONAL WEATHER SERVICE NORTHERN INDIANA
900 PM EDT SAT OCT 21 2017

NOTE: "FAIR" INDICATES FEW OR NO CLOUDS BELOW 12,000 FEET WITH NO
SIGNIFICANT WEATHER AND/OR OBSTRUCTIONS TO VISIBILITY.

* THESE STATIONS ARE NOT UNDER NWS QUALITY CONTROL. THEY ALSO MAY NOT
  REPORT WEATHER SUCH AS PRECIPITATION OR FOG.

INZ001>027-220200-
NORTHERN INDIANA

CITY           SKY/WX    TMP DP  RH WIND       PRES   REMARKS
GARY*          PTCLDY    72  55  56 S8        30.04S
VALPARAISO     CLEAR     69  57  65 SE9       30.07S
MICHIGAN CITY* PTCLDY    68  54  60 S10       30.06F
LAPORTE*       CLOUDY    66  55  66 S9        30.08F
KNOX*          PTCLDY    66  54  63 S14       30.08S
SOUTH BEND     CLOUDY    67  54  63 S13       30.10S
GOSHEN         CLOUDY    65  51  60 SE7       30.12S
MONTICELLO*    CLEAR     67  54  62 S8        30.11R
LOGANSPORT*    CLEAR     63  52  67 S8        30.13S
WARSAW*        PTCLDY    66  52  59 SE6       30.13S
AUBURN*        MOCLDY    64  41  42 CALM      30.16S
FORT WAYNE     CLOUDY    64  45  49 S7        30.16R
HUNTINGTON*    CLOUDY    65  48  53 S5        30.15S
PERU/GRISSOM   PTCLDY    66  52  61 S13       30.13S

$$
INZ028>050-220200-
CENTRAL INDIANA

CITY           SKY/WX    TMP DP  RH WIND       PRES   REMARKS
LAFAYETTE      CLEAR     67  55  65 S12       30.10R
KOKOMO*        PTCLDY    66  52  60 S13       30.15S
MUNCIE*        CLOUDY    68  46  45 S10       30.17S
INDIANAPOLIS   PTCLDY    66  51  58 SE10      30.15S

$$
MIZ043>046-050>051-056>058-064>065-071>073-077>080-220200-
SOUTHWEST LOWER MICHIGAN

CITY           SKY/WX    TMP DP  RH WIND       PRES   REMARKS
BATTLE CREEK   MOCLDY    67  42  40 SE5       30.13S
BENTON HARBOR  CLEAR     68  53  58 SE10      30.06S
COLDWATER*     CLOUDY    65  41  42 S6        30.14R
HILLSDALE*     CLOUDY    64  45  48 S9        30.15S
HOLLAND        CLOUDY    67  52  58 S10       30.07S
GRAND RAPIDS   MOCLDY    66  47  50 S9        30.09R
KALAMAZOO      CLOUDY    67  47  48 S8        30.12R
STURGIS*       CLOUDY    65  46  50 S7        30.13S
THREE RIVERS*  FAIR      68  49  51 S7        30.12S

$$
OHZ001>008-015>018-024>025-220200-
NORTHWEST OHIO

CITY           SKY/WX    TMP DP  RH WIND       PRES   REMARKS
WAUSEON*       FAIR      61  52  72 S7        30.17R
DEFIANCE       PTCLDY    64  42  44 S6        30.17R
FINDLAY        MOCLDY    61  42  49 S9        30.18S
TOLEDO EXPRESS MOCLDY    65  48  54 S6        30.17R
TOLEDO METCALF CLOUDY    62  48  60 S5        30.18S
LIMA           PTCLDY    60  45  57 S9        30.19F

$$
AND FOR LAKE MICHIGAN COASTAL AND OPEN LAKE BUOY OBSERVATIONS

STATION/POSITION TEMP    WIND        PRES    VSBY  WAVE
                 AIR SEA DIR/SP/G                  HT/PER
                 (F)     (DEG/KT/KT) (MB)    (MI)  (FT/S)
CALUMET HARBOR    72     170/ 15/ 19 1015.9F
MICHIGAN CITY     71     150/ 10/ 13   N/A
BURNS HARBOR      71     160/ 12/ 18 1017.6S
SAINT JOSEPH      70     180/  3/  8 1018.6
SOUTH LAKE BUOY   66 61  150/ 17/ 19 1016.0          3/ 4
4 MI NW BRIDGMAN  67 59  180/ 14/ 19 1017.7          2/ 3
MICHIGAN CITY     67 58  180/ 14/ 19   N/A           1/ 2

$$
&&




USA.gov is the U.S. government's official web portal to all federal, state and local government web resources and services.